Stations météo

réclame
Mon MeteoGroup
Huesca, Espagne (8094): Température de l'air & dewpoint: 11.01.2020 23:00:00 - 17.01.2020 23:00:00 (CET)Huesca, Espagne (8094): Vitesse du vent: 11.01.2020 23:00:00 - 17.01.2020 23:00:00 (CET)Huesca, Espagne (8094): Direction du vent: 11.01.2020 23:00:00 - 17.01.2020 23:00:00 (CET)Huesca, Espagne (8094): reduced air pressure: 11.01.2020 23:00:00 - 17.01.2020 23:00:00 (CET)Huesca, Espagne (8094): visibility: 11.01.2020 23:00:00 - 17.01.2020 23:00:00 (CET)Huesca, Espagne (8094): Quantités de précipitations: 11.01.2020 23:00:00 - 17.01.2020 23:00:00 (CET)
Date & Time tt [°C] td [°C] ff [km/h] ff [knt] dd ppp [hPa] vv [km] rr [mm]
17.01.2020 23:00:00 3,3 -0,5 4 2 W 1032,5 - 0,0
17.01.2020 22:00:00 5,4 -1,1 5 3 NNW 1031,8 - -
17.01.2020 21:00:00 6,0 0,1 9 5 N 1031,1 - 0,0
17.01.2020 20:00:00 5,7 0,6 8 4 NW 1031,1 - 0,0
17.01.2020 19:00:00 6,5 0,2 8 4 NNW 1030,7 - -
17.01.2020 18:00:00 7,5 1,3 11 6 NNW 1029,2 - 0,0
17.01.2020 17:00:00 9,4 1,8 11 6 NNW 1028,1 - 0,0
17.01.2020 16:00:00 10,3 2,6 11 6 NNW 1027,1 75 -
17.01.2020 15:00:00 9,4 5,0 15 8 NNW 1027,0 - 0,4
17.01.2020 14:00:00 12,3 5,7 13 7 W 1026,1 - 0,0
17.01.2020 13:00:00 11,1 6,8 9 5 W 1027,1 30 -
17.01.2020 12:00:00 9,7 7,3 5 3 WSW 1027,8 - 0,0
17.01.2020 11:00:00 7,8 6,4 5 3 WSW 1028,1 - 0,0
17.01.2020 10:00:00 6,3 5,6 4 2 NW 1027,9 15 -
17.01.2020 09:00:00 5,1 4,7 4 2 WNW 1027,7 - 0,0
17.01.2020 08:00:00 6,0 5,0 4 2 NNW 1027,0 - 0,0
17.01.2020 07:00:00 6,3 5,4 8 4 E 1026,8 - -
17.01.2020 06:00:00 6,3 5,4 8 4 E 1026,4 - 0,0
17.01.2020 05:00:00 6,1 5,4 8 4 ENE 1026,8 - 0,2
17.01.2020 04:00:00 6,3 5,3 5 3 E 1026,8 - -
17.01.2020 03:00:00 6,5 4,8 11 6 E 1027,0 - 0,0
17.01.2020 02:00:00 6,1 4,4 13 7 ESE 1026,9 - 0,0
17.01.2020 01:00:00 6,9 5,0 13 7 ESE 1026,8 - -
17.01.2020 00:00:00 6,8 4,9 11 6 ENE 1027,0 - 0,0
16.01.2020 23:00:00 6,6 5,1 11 6 ENE 1027,1 - 0,0
16.01.2020 22:00:00 6,2 4,7 8 4 ENE 1027,4 - -
16.01.2020 21:00:00 6,0 4,6 11 6 E 1027,4 - 0,0
16.01.2020 20:00:00 6,8 5,1 9 5 ESE 1027,1 - 0,0
16.01.2020 19:00:00 8,0 5,6 8 4 E 1026,3 - -
16.01.2020 18:00:00 9,7 6,4 8 4 SE 1025,4 - 0,0
16.01.2020 17:00:00 10,5 6,8 8 4 ESE 1025,4 - 0,0
16.01.2020 16:00:00 10,6 6,9 4 2 S 1025,7 50 -
16.01.2020 15:00:00 10,8 6,9 4 2 WSW 1025,9 - 0,0
16.01.2020 14:00:00 12,0 7,1 4 2 SSE 1026,2 - 0,0
16.01.2020 13:00:00 10,3 5,7 9 5 ESE 1027,3 35 -
16.01.2020 12:00:00 7,6 5,6 4 2 SSW 1028,9 - 0,0
16.01.2020 11:00:00 6,0 4,5 2 1 S 1029,7 - 0,0
16.01.2020 10:00:00 5,9 3,7 5 3 ENE 1029,4 20 -
16.01.2020 09:00:00 3,1 1,9 4 2 WNW 1030,1 - 0,0
16.01.2020 08:00:00 2,9 1,7 4 2 N 1030,1 - 0,0
16.01.2020 07:00:00 3,1 1,8 11 6 E 1029,4 - -
16.01.2020 06:00:00 3,0 2,1 9 5 ENE 1029,2 - 0,0
16.01.2020 05:00:00 2,4 1,5 5 3 E 1029,5 - 0,0
16.01.2020 04:00:00 3,5 2,6 4 2 NE 1029,0 - -
16.01.2020 03:00:00 3,2 2,2 5 3 ENE 1029,2 - 0,0
16.01.2020 02:00:00 3,3 2,6 5 3 ENE 1029,0 - 0,0
16.01.2020 01:00:00 2,9 2,0 5 3 E 1029,4 - -
16.01.2020 00:00:00 3,3 2,3 5 3 E 1029,0 - 0,0
15.01.2020 23:00:00 3,8 2,0 4 2 NE 1028,9 - 0,0
15.01.2020 22:00:00 4,5 2,7 4 2 S 1028,1 - -
15.01.2020 21:00:00 4,4 3,4 4 2 NW 1027,8 - 0,0
15.01.2020 20:00:00 4,8 3,1 8 4 NW 1027,5 - 0,0
15.01.2020 19:00:00 5,7 3,7 5 3 W 1026,5 - -
15.01.2020 18:00:00 6,2 3,9 4 2 NNW 1025,7 - 0,0
15.01.2020 17:00:00 8,1 4,5 4 2 W 1024,6 - 0,0
15.01.2020 16:00:00 8,5 3,7 8 4 W 1024,3 55 -
15.01.2020 15:00:00 7,3 3,5 4 2 NW 1024,4 - 0,0
15.01.2020 14:00:00 7,8 3,3 5 3 WSW 1024,5 - 0,0
15.01.2020 13:00:00 6,9 3,3 4 2 SSW 1025,4 35 -
15.01.2020 12:00:00 6,4 3,0 4 2 S 1026,0 - 0,0
15.01.2020 11:00:00 3,1 1,5 4 2 SE 1026,7 - 0,0
15.01.2020 10:00:00 1,0 -0,8 2 1 WNW 1026,4 25 -
15.01.2020 09:00:00 0,7 -1,1 4 2 S 1025,7 - 0,0
15.01.2020 08:00:00 1,4 -0,4 5 3 N 1025,1 - 0,0
15.01.2020 07:00:00 0,4 -0,6 5 3 NE 1025,0 - -
15.01.2020 06:00:00 0,1 -0,5 5 3 E 1024,5 - 0,0
15.01.2020 05:00:00 1,1 -0,1 4 2 W 1024,5 - 0,0
15.01.2020 04:00:00 0,9 0,0 2 1 SE 1024,6 - -
15.01.2020 03:00:00 1,6 0,3 5 3 WSW 1024,4 - 0,0
15.01.2020 02:00:00 1,5 0,2 2 1 N 1024,3 - 0,0
15.01.2020 01:00:00 1,0 0,0 2 1 ENE 1024,6 - -
15.01.2020 00:00:00 0,4 -0,9 5 3 ENE 1025,0 - 0,0
14.01.2020 23:00:00 0,6 -0,3 5 3 ENE 1024,8 - 0,0
14.01.2020 22:00:00 1,4 0,4 4 2 W 1024,5 - -
14.01.2020 21:00:00 1,3 0,3 2 1 NE 1024,3 - 0,0
14.01.2020 20:00:00 2,3 0,4 4 2 E 1023,8 - 0,0
14.01.2020 19:00:00 2,7 0,4 5 3 ENE 1023,6 - -
14.01.2020 18:00:00 2,6 0,7 4 2 NNW 1023,0 - 0,0
14.01.2020 17:00:00 5,7 3,2 2 1 NW 1022,0 - 0,0
14.01.2020 16:00:00 6,5 3,1 4 2 W 1021,8 35 -
14.01.2020 15:00:00 6,7 2,6 4 2 S 1021,7 - 0,0
14.01.2020 14:00:00 6,0 1,9 9 5 WSW 1022,3 - 0,0
14.01.2020 13:00:00 5,9 1,6 4 2 SW 1023,0 55 -
14.01.2020 12:00:00 3,9 1,4 4 2 WNW 1024,2 - 0,0
14.01.2020 11:00:00 2,4 0,1 4 2 NW 1024,5 - 0,0
14.01.2020 10:00:00 1,3 -0,2 4 2 NW 1024,3 35 -
14.01.2020 09:00:00 -1,6 -2,0 0 0 N 1024,6 - 0,0
14.01.2020 08:00:00 -1,7 -2,3 4 2 E 1024,3 - 0,0
14.01.2020 07:00:00 -1,3 -1,9 2 1 NE 1023,8 - -
14.01.2020 06:00:00 -0,6 -1,2 4 2 W 1023,6 - 0,0
14.01.2020 05:00:00 -1,0 -1,7 5 3 ENE 1023,4 - 0,0
14.01.2020 04:00:00 -0,4 -0,8 2 1 WNW 1023,7 - -
14.01.2020 03:00:00 -0,5 -1,1 4 2 ENE 1023,7 - 0,0
14.01.2020 02:00:00 -0,1 -0,1 4 2 ENE 1023,9 - 0,0
14.01.2020 01:00:00 -0,6 -0,7 4 2 E 1024,7 - -
14.01.2020 00:00:00 -0,4 -0,4 9 5 E 1024,5 - 0,0
13.01.2020 23:00:00 0,1 0,1 8 4 ENE 1024,7 - 0,0
13.01.2020 22:00:00 -0,5 -0,5 5 3 ESE 1024,5 - -
13.01.2020 21:00:00 -0,5 -0,5 5 3 E 1024,7 - 0,0
13.01.2020 20:00:00 -0,3 -0,4 5 3 E 1024,6 - 0,0
13.01.2020 19:00:00 0,2 -0,1 5 3 E 1024,4 - -
13.01.2020 18:00:00 1,1 0,7 4 2 WNW 1024,5 - 0,0
13.01.2020 17:00:00 3,0 2,3 4 2 NNW 1024,2 - 0,0
13.01.2020 16:00:00 3,1 2,4 4 2 ESE 1023,8 75 -
13.01.2020 15:00:00 2,9 2,2 4 2 W 1024,5 - 0,0
13.01.2020 14:00:00 3,2 2,5 2 1 SSE 1024,9 - 0,0
13.01.2020 13:00:00 0,0 -0,3 5 3 WSW 1027,0 0,1 -
13.01.2020 12:00:00 2,6 1,3 4 2 S 1027,2 - 0,0
13.01.2020 11:00:00 1,4 0,5 4 2 E 1027,8 - 0,0
13.01.2020 10:00:00 -0,8 -0,8 4 2 ENE 1028,1 75 -
13.01.2020 09:00:00 -2,6 -2,7 4 2 NE 1028,6 - 0,0
13.01.2020 08:00:00 -2,5 -2,8 2 1 E 1028,6 - 0,0
13.01.2020 07:00:00 -1,6 -1,6 4 2 ENE 1028,6 - -
13.01.2020 06:00:00 -1,6 -1,6 2 1 ENE 1028,7 - 0,0
13.01.2020 05:00:00 -1,7 -1,7 4 2 E 1029,1 - 0,0
13.01.2020 04:00:00 -1,2 -1,2 2 1 W 1029,7 - -
13.01.2020 03:00:00 -1,0 -1,0 4 2 WNW 1030,1 - 0,0
13.01.2020 02:00:00 -1,5 -1,5 4 2 WNW 1030,9 - 0,0
13.01.2020 01:00:00 -1,7 -1,8 2 1 NW 1031,4 - -
13.01.2020 00:00:00 -1,3 -1,3 4 2 N 1031,8 - 0,0
12.01.2020 23:00:00 -1,5 -1,5 8 4 NE 1032,2 - 0,0
12.01.2020 22:00:00 -1,5 -1,5 4 2 W 1032,4 - -
12.01.2020 21:00:00 -0,8 -0,8 5 3 NE 1032,3 - 0,0
12.01.2020 20:00:00 -0,9 -0,9 5 3 NNE 1032,4 - 0,0
12.01.2020 19:00:00 0,1 0,0 4 2 E 1032,2 - -
12.01.2020 18:00:00 1,6 1,0 4 2 ESE 1031,2 - 0,0
12.01.2020 17:00:00 3,4 2,2 4 2 SSE 1030,8 - 0,0
12.01.2020 16:00:00 2,9 2,6 4 2 SE 1030,6 75 -
12.01.2020 15:00:00 2,5 1,9 5 3 WSW 1030,7 - 0,0
12.01.2020 14:00:00 3,3 2,7 5 3 W 1030,8 - 0,0
12.01.2020 13:00:00 2,3 2,2 2 1 ENE 1032,1 1,2 -
12.01.2020 12:00:00 1,7 1,7 4 2 ESE 1033,0 - 0,0
12.01.2020 11:00:00 0,4 0,4 2 1 NW 1033,6 - 0,0
12.01.2020 10:00:00 0,0 0,0 5 3 E 1032,8 0,1 -
12.01.2020 09:00:00 -0,9 -0,9 4 2 E 1032,4 - 0,0
12.01.2020 08:00:00 -1,0 -1,0 5 3 ENE 1032,3 - 0,0
12.01.2020 07:00:00 -1,2 -1,3 5 3 E 1032,1 - -
12.01.2020 06:00:00 -0,3 -0,3 0 0 N 1031,4 - 0,0
12.01.2020 05:00:00 -0,8 -0,9 2 1 WSW 1031,6 - 0,0
12.01.2020 04:00:00 -0,6 -0,9 2 1 ENE 1031,8 - -
12.01.2020 03:00:00 -0,4 -1,0 5 3 ENE 1031,9 - 0,0
12.01.2020 02:00:00 -0,2 -0,9 4 2 ENE 1031,9 - 0,0
12.01.2020 01:00:00 0,0 -0,7 5 3 E 1032,0 - -
12.01.2020 00:00:00 0,7 0,4 4 2 E 1032,1 - 0,0
11.01.2020 23:00:00 0,8 0,2 4 2 NE 1032,3 - 0,0

tt = Température de l'air
td = dewpoint
ff = Vitesse du vent
dd = Direction du vent
ppp = reduced air pressure
vv = visibility
rr = Quantités de précipitations

stations d'obs. à proximité